TimePDT,TemperatureF,Dew PointF,Humidity,Sea Level PressureIn,VisibilityMPH,Wind Direction,Wind SpeedMPH,Gust SpeedMPH,PrecipitationIn,Events,Conditions,WindDirDegrees,DateUTC
12:58 AM,67.5,52.9,59,29.88,10.0,West,5.8,-,N/A,,Mostly Cloudy,260,2013-08-23 07:58:00
1:58 AM,63.3,55.4,75,29.89,10.0,WSW,8.1,-,N/A,,Clear,240,2013-08-23 08:58:00
2:58 AM,62.4,55.6,78,29.89,10.0,WSW,10.4,-,N/A,,Overcast,250,2013-08-23 09:58:00
3:58 AM,61.7,55.9,81,29.90,10.0,SSW,6.9,-,N/A,,Mostly Cloudy,210,2013-08-23 10:58:00
4:58 AM,61.3,55.9,82,29.89,10.0,SSW,4.6,-,N/A,,Mostly Cloudy,210,2013-08-23 11:58:00
5:13 AM,60.8,55.4,82,29.88,10.0,South,6.9,-,N/A,,Overcast,180,2013-08-23 12:13:00
5:58 AM,61.2,56.1,83,29.89,10.0,SSW,6.9,-,N/A,,Overcast,200,2013-08-23 12:58:00
6:58 AM,61.3,56.1,83,29.90,10.0,SSW,6.9,-,N/A,,Overcast,210,2013-08-23 13:58:00
7:13 AM,60.8,55.4,82,29.89,10.0,SW,6.9,-,N/A,,Overcast,220,2013-08-23 14:13:00
7:58 AM,62.8,56.5,80,29.91,10.0,SW,5.8,-,N/A,,Overcast,220,2013-08-23 14:58:00
8:08 AM,62.6,57.2,82,29.90,10.0,SW,9.2,-,N/A,,Overcast,220,2013-08-23 15:08:00
8:13 AM,62.6,57.2,82,29.90,10.0,SW,8.1,-,N/A,,Overcast,220,2013-08-23 15:13:00
8:23 AM,64.4,55.4,73,29.91,10.0,SW,9.2,-,N/A,,Overcast,230,2013-08-23 15:23:00
8:58 AM,64.2,56.3,75,29.92,10.0,SW,9.2,-,N/A,,Overcast,230,2013-08-23 15:58:00
9:43 AM,66.2,55.4,68,29.91,10.0,SSW,6.9,-,N/A,,Overcast,210,2013-08-23 16:43:00
9:58 AM,65.7,55.8,70,29.92,10.0,SW,10.4,-,N/A,,Overcast,220,2013-08-23 16:58:00
10:33 AM,68.0,55.4,64,29.91,10.0,SSW,9.2,-,N/A,,Mostly Cloudy,210,2013-08-23 17:33:00
10:58 AM,69.1,55.9,63,29.92,10.0,SW,12.7,-,N/A,,Scattered Clouds,230,2013-08-23 17:58:00
11:08 AM,68.0,55.4,64,29.91,10.0,WSW,16.1,-,N/A,,Mostly Cloudy,240,2013-08-23 18:08:00
11:24 AM,69.8,55.4,60,29.91,10.0,SSW,12.7,21.9,N/A,,Overcast,200,2013-08-23 18:24:00
11:58 AM,70.5,56.1,60,29.92,10.0,WSW,10.4,19.6,N/A,,Overcast,240,2013-08-23 18:58:00
12:43 PM,69.8,55.4,60,29.91,10.0,SSW,11.5,21.9,N/A,,Overcast,210,2013-08-23 19:43:00
12:48 PM,69.8,55.4,60,29.91,10.0,WSW,12.7,21.9,N/A,,Overcast,240,2013-08-23 19:48:00
12:58 PM,69.8,55.4,60,29.92,10.0,WSW,10.4,-,N/A,,Mostly Cloudy,240,2013-08-23 19:58:00
1:48 PM,71.6,55.4,57,29.90,10.0,SW,15.0,-,N/A,,Overcast,220,2013-08-23 20:48:00
1:58 PM,73.2,54.9,52,29.91,10.0,WSW,11.5,23.0,N/A,,Mostly Cloudy,250,2013-08-23 20:58:00
2:58 PM,74.5,54.7,50,29.91,10.0,SW,15.0,19.6,N/A,,Scattered Clouds,230,2013-08-23 21:58:00
3:58 PM,73.6,55.9,54,29.90,10.0,WNW,9.2,-,N/A,,Overcast,290,2013-08-23 22:58:00
4:58 PM,72.3,55.2,55,29.90,10.0,West,10.4,-,N/A,,Scattered Clouds,280,2013-08-23 23:58:00
5:58 PM,73.6,55.8,54,29.89,10.0,WSW,12.7,18.4,N/A,,Mostly Cloudy,240,2013-08-24 00:58:00
6:58 PM,70.9,54.3,56,29.89,10.0,West,9.2,-,N/A,,Overcast,280,2013-08-24 01:58:00
7:58 PM,67.6,55.2,64,29.90,10.0,West,9.2,-,N/A,,Overcast,280,2013-08-24 02:58:00
8:58 PM,64.9,55.8,72,29.91,10.0,West,9.2,-,N/A,,Partly Cloudy,280,2013-08-24 03:58:00
9:58 PM,63.3,56.3,78,29.92,10.0,West,5.8,-,N/A,,Scattered Clouds,260,2013-08-24 04:58:00
10:58 PM,63.1,56.1,78,29.92,10.0,WSW,6.9,-,N/A,,Overcast,240,2013-08-24 05:58:00
11:58 PM,63.0,55.2,76,29.92,10.0,SW,5.8,-,N/A,,Overcast,220,2013-08-24 06:58:00